| time (UTC) | temp F | wind direction | speed MPH | gust MPH | rain 1hr in | rain 24hr in | rain mn in | humidity % | barometer mb |
| 20260502163407 | 73 | 112 | 5.0 | 7.0 | 0.00 | 0.00 | 0.00 | 39 | 1019.0 |
| 20260502161906 | 75 | 88 | 5.0 | 7.0 | 0.00 | 0.00 | 0.00 | 27 | 1020.0 |
| 20260502160406 | 75 | 88 | 5.0 | 7.0 | 0.00 | 0.00 | 0.00 | 34 | 1020.0 |
| 20260502151905 | 76 | 79 | 5.0 | 5.0 | 0.00 | 0.00 | 0.00 | 24 | 1020.0 |
| 20260502150405 | 76 | 79 | 5.0 | 5.0 | 0.00 | 0.00 | 0.00 | 25 | 1021.0 |
| 20260502130402 | 74 | 63 | 4.0 | 5.0 | 0.00 | 0.00 | 0.00 | 31 | 1022.0 |
| 20260502123401 | 74 | 75 | 4.0 | 5.0 | 0.00 | 0.00 | 0.00 | 31 | 1022.0 |
| 20260502121901 | 74 | 74 | 3.0 | 5.0 | 0.00 | 0.00 | 0.00 | 28 | 1023.0 |
| 20260502120400 | 74 | 74 | 3.0 | 5.0 | 0.00 | 0.00 | 0.00 | 32 | 1023.0 |
| 20260502114900 | 74 | 74 | 3.0 | 5.0 | 0.00 | 0.00 | 0.00 | 32 | 1023.0 |
| 20260502113400 | 73 | 74 | 3.0 | 5.0 | 0.00 | 0.00 | 0.00 | 33 | 1023.0 |
| 20260502111859 | 73 | 80 | 3.0 | 5.0 | 0.00 | 0.00 | 0.00 | 31 | 1024.0 |
| 20260502110359 | 72 | 80 | 3.0 | 5.0 | 0.00 | 0.00 | 0.00 | 34 | 1023.0 |
| 20260502104858 | 72 | 80 | 3.0 | 5.0 | 0.00 | 0.00 | 0.00 | 34 | 1023.0 |
| 20260502103358 | 72 | 80 | 3.0 | 5.0 | 0.00 | 0.00 | 0.00 | 35 | 1023.0 |
| 20260502101858 | 71 | 93 | 3.0 | 4.0 | 0.00 | 0.00 | 0.00 | 34 | 1024.0 |
| 20260502100358 | 70 | 93 | 3.0 | 4.0 | 0.00 | 0.00 | 0.00 | 38 | 1024.0 |
| 20260502090356 | 68 | 102 | 3.0 | 4.0 | 0.00 | 0.00 | 0.00 | 40 | 1025.0 |
| 20260502070353 | 59 | 111 | 2.0 | 3.0 | 0.00 | 0.00 | 0.00 | 57 | 1025.0 |
| 20260502064853 | 58 | 111 | 2.0 | 3.0 | 0.00 | 0.00 | 0.00 | 62 | 1025.0 |
| 20260502063353 | 58 | 113 | 3.0 | 3.0 | 0.00 | 0.00 | 0.00 | 62 | 1025.0 |
| 20260502061852 | 55 | 122 | 2.0 | 3.0 | 0.00 | 0.00 | 0.00 | 65 | 1025.0 |
| 20260502060352 | 53 | 122 | 2.0 | 3.0 | 0.00 | 0.00 | 0.00 | 70 | 1026.0 |
| 20260502054851 | 53 | 122 | 2.0 | 3.0 | 0.00 | 0.00 | 0.00 | 70 | 1026.0 |
| 20260502053351 | 52 | 122 | 2.0 | 3.0 | 0.00 | 0.00 | 0.00 | 71 | 1026.0 |
| 20260502051851 | 47 | 144 | 2.0 | 2.0 | 0.00 | 0.00 | 0.00 | 75 | 1025.0 |
| 20260502050350 | 47 | 144 | 2.0 | 2.0 | 0.00 | 0.00 | 0.00 | 77 | 1026.0 |
| 20260502044850 | 47 | 144 | 2.0 | 2.0 | 0.00 | 0.00 | 0.00 | 77 | 1026.0 |
| 20260502043350 | 46 | 144 | 2.0 | 2.0 | 0.00 | 0.00 | 0.00 | 78 | 1026.0 |
| 20260502041849 | 43 | 155 | 2.0 | 2.0 | 0.00 | 0.00 | 0.00 | 79 | 1025.0 |
| 20260502040349 | 42 | 155 | 2.0 | 2.0 | 0.00 | 0.00 | 0.00 | 78 | 1025.0 |
| 20260502034849 | 43 | 155 | 2.0 | 2.0 | 0.00 | 0.00 | 0.00 | 80 | 1026.0 |
| 20260502033348 | 43 | 155 | 2.0 | 2.0 | 0.00 | 0.00 | 0.00 | 80 | 1026.0 |
| 20260502031848 | 42 | 160 | 2.0 | 2.0 | 0.00 | 0.00 | 0.00 | 78 | 1025.0 |
| 20260502030348 | 43 | 160 | 2.0 | 2.0 | 0.00 | 0.00 | 0.00 | 78 | 1025.0 |
| 20260502024847 | 43 | 160 | 2.0 | 2.0 | 0.00 | 0.00 | 0.00 | 79 | 1026.0 |
| 20260502023347 | 43 | 160 | 2.0 | 2.0 | 0.00 | 0.00 | 0.00 | 78 | 1026.0 |
| 20260502021847 | 43 | 159 | 2.0 | 2.0 | 0.00 | 0.00 | 0.00 | 77 | 1026.0 |
| 20260502020346 | 44 | 159 | 2.0 | 2.0 | 0.00 | 0.00 | 0.00 | 76 | 1026.0 |
| 20260502014846 | 44 | 159 | 2.0 | 2.0 | 0.00 | 0.00 | 0.00 | 77 | 1026.0 |
| 20260502013345 | 44 | 159 | 2.0 | 2.0 | 0.00 | 0.00 | 0.00 | 77 | 1026.0 |
| 20260502011845 | 45 | 160 | 2.0 | 2.0 | 0.00 | 0.00 | 0.00 | 76 | 1026.0 |
| 20260502010345 | 45 | 160 | 2.0 | 2.0 | 0.00 | 0.00 | 0.00 | 76 | 1026.0 |
| 20260502004844 | 45 | 156 | 2.0 | 2.0 | 0.00 | 0.00 | 0.00 | 76 | 1026.0 |
| 20260502003344 | 45 | 156 | 2.0 | 2.0 | 0.00 | 0.00 | 0.00 | 76 | 1026.0 |
| 20260502001844 | 46 | 165 | 2.0 | 2.0 | 0.00 | 0.00 | 0.00 | 72 | 1026.0 |
| 20260502000343 | 46 | 165 | 2.0 | 2.0 | 0.00 | 0.00 | 0.00 | 74 | 1027.0 |
| 20260501234843 | 46 | 165 | 2.0 | 2.0 | 0.00 | 0.00 | 0.00 | 74 | 1027.0 |
| 20260501233342 | 47 | 165 | 2.0 | 2.0 | 0.00 | 0.00 | 0.00 | 74 | 1027.0 |
| 20260501231842 | 47 | 165 | 3.0 | 3.0 | 0.00 | 0.00 | 0.00 | 70 | 1027.0 |
| 20260501230342 | 48 | 165 | 3.0 | 3.0 | 0.00 | 0.00 | 0.00 | 70 | 1027.0 |
| 20260501224841 | 48 | 165 | 3.0 | 3.0 | 0.00 | 0.00 | 0.00 | 70 | 1027.0 |
| 20260501223341 | 48 | 165 | 3.0 | 3.0 | 0.00 | 0.00 | 0.00 | 70 | 1027.0 |
| 20260501221841 | 50 | 159 | 3.0 | 3.0 | 0.00 | 0.00 | 0.00 | 63 | 1027.0 |
| 20260501220340 | 50 | 159 | 3.0 | 3.0 | 0.00 | 0.00 | 0.00 | 67 | 1027.0 |
| 20260501214840 | 50 | 159 | 3.0 | 3.0 | 0.00 | 0.00 | 0.00 | 67 | 1027.0 |
| 20260501213340 | 50 | 159 | 3.0 | 3.0 | 0.00 | 0.00 | 0.00 | 66 | 1027.0 |
| 20260501211839 | 52 | 146 | 3.0 | 3.0 | 0.00 | 0.00 | 0.00 | 59 | 1026.0 |
| 20260501210339 | 52 | 146 | 3.0 | 3.0 | 0.00 | 0.00 | 0.00 | 64 | 1027.0 |
| 20260501204839 | 52 | 146 | 3.0 | 3.0 | 0.00 | 0.00 | 0.00 | 64 | 1027.0 |
| 20260501203338 | 53 | 146 | 3.0 | 3.0 | 0.00 | 0.00 | 0.00 | 64 | 1027.0 |
| 20260501201838 | 55 | 126 | 2.0 | 3.0 | 0.00 | 0.00 | 0.00 | 53 | 1026.0 |
| 20260501200338 | 55 | 126 | 2.0 | 3.0 | 0.00 | 0.00 | 0.00 | 59 | 1026.0 |
| 20260501194837 | 55 | 126 | 2.0 | 3.0 | 0.00 | 0.00 | 0.00 | 59 | 1026.0 |
| 20260501193337 | 56 | 126 | 2.0 | 3.0 | 0.00 | 0.00 | 0.00 | 59 | 1026.0 |
| 20260501191837 | 57 | 250 | 0.0 | 0.0 | 0.00 | 0.00 | 0.00 | 49 | 1026.0 |
| 20260501190336 | 59 | 250 | 0.0 | 0.0 | 0.00 | 0.00 | 0.00 | 55 | 1026.0 |
| 20260501184836 | 59 | 250 | 0.0 | 0.0 | 0.00 | 0.00 | 0.00 | 53 | 1026.0 |
| 20260501183336 | 59 | 163 | 3.0 | 3.0 | 0.00 | 0.00 | 0.00 | 53 | 1026.0 |
| 20260501181835 | 62 | 204 | 1.0 | 1.0 | 0.00 | 0.00 | 0.00 | 42 | 1026.0 |
| 20260501180335 | 63 | 204 | 1.0 | 1.0 | 0.00 | 0.00 | 0.00 | 48 | 1026.0 |
| 20260501174835 | 63 | 204 | 1.0 | 1.0 | 0.00 | 0.00 | 0.00 | 48 | 1026.0 |
| 20260501173334 | 64 | 204 | 1.0 | 1.0 | 0.00 | 0.00 | 0.00 | 47 | 1026.0 |
| 20260501171834 | 67 | 277 | 1.0 | 1.0 | 0.00 | 0.00 | 0.00 | 37 | 1026.0 |
| 20260501170334 | 67 | 277 | 1.0 | 1.0 | 0.00 | 0.00 | 0.00 | 36 | 1026.0 |
| 20260501164833 | 67 | 277 | 1.0 | 1.0 | 0.00 | 0.00 | 0.00 | 44 | 1025.0 |